Jackson, MN

8:26 AM CDT on August 28, 2016 (GMT -0500)
Jackson Municipal

Weather History for KMJQ - May, 2013

Change the Weather History Date:

Friday, May 24, 2013

  Actual Average Record
Temperature  
Mean Temperature 55 °F -  
Max Temperature 71 °F 67 °F 82 °F (2014)
Min Temperature 39 °F 47 °F 33 °F (2002)
Degree Days  
Heating Degree Days 10    
Growing Degree Days 5 (Base 50)    
Moisture  
Dew Point 40 °F    
Average Humidity 58    
Maximum Humidity 81    
Minimum Humidity 27    
Precipitation  
Precipitation 0.47 in - - ()
Sea Level Pressure  
Sea Level Pressure 30.26 in    
Wind  
Wind Speed 10 mph (SE)    
Max Wind Speed 22 mph    
Max Gust Speed 30 mph    
Visibility 10 miles    
Events Rain , Thunderstorm    
Averages and records for this station are not official NWS values.
T = Trace of Precipitation, MM = Missing Value Source: NWS Daily Summary

Daily Weather History Graph

Daily Weather History Graph

Search for Another Location

Airport or City:

Trip Planner

Search our weather history database for the weather conditions in past years. The results will help you decide how hot, cold, wet, or windy it might be!

Date:

Astronomy

May. 24, 2013 Rise Set
Actual Time 5:46 AM CDT 8:47 PM CDT
Civil Twilight 5:12 AM CDT 9:22 PM CDT
Nautical Twilight 4:28 AM CDT 10:06 PM CDT
Astronomical Twilight 3:36 AM CDT 10:58 PM CDT
Moon 8:30 PM CDT (5/24) 5:20 AM CDT (5/24)
Length of Visible Light 16h 10m
Length of Day
15h 01m
Full, 100% of the Moon is Illuminated
May 24
Full
May 24
Full
May 31
Last Quarter
Jun 8
New
Jun 16
First Quarter

Hourly Weather History & Observations

Time (CDT) Temp. Windchill Dew Point Humidity Pressure Visibility Wind Dir Wind Speed Gust Speed Precip Events Conditions
12:12 AM 48.2 °F - 33.8 °F 58% 30.32 in 10.0 mi East 5.8 mph - N/A   Clear
12:32 AM 46.4 °F 44.3 °F 33.8 °F 62% 30.32 in 10.0 mi East 4.6 mph - N/A   Clear
12:52 AM 44.6 °F 42.2 °F 33.8 °F 66% 30.32 in 10.0 mi East 4.6 mph - N/A   Clear
1:12 AM 44.6 °F 40.7 °F 33.8 °F 66% 30.32 in 10.0 mi East 6.9 mph - N/A   Clear
1:32 AM 42.8 °F 38.6 °F 33.8 °F 70% 30.32 in 10.0 mi East 6.9 mph - N/A   Clear
1:52 AM 42.8 °F 41.1 °F 33.8 °F 70% 30.33 in 10.0 mi ESE 3.5 mph - N/A   Clear
2:12 AM 42.8 °F 39.3 °F 33.8 °F 70% 30.32 in 10.0 mi East 5.8 mph - N/A   Clear
2:32 AM 42.8 °F 39.3 °F 33.8 °F 70% 30.32 in 10.0 mi East 5.8 mph - N/A   Clear
2:52 AM 42.8 °F 39.3 °F 33.8 °F 70% 30.33 in 10.0 mi East 5.8 mph - N/A   Clear
3:13 AM 41.0 °F 37.1 °F 32.0 °F 70% 30.33 in 10.0 mi ESE 5.8 mph - N/A   Clear
3:32 AM 41.0 °F 36.4 °F 33.8 °F 76% 30.32 in 10.0 mi East 6.9 mph - N/A   Clear
3:51 AM 39.2 °F 34.2 °F 32.0 °F 75% 30.32 in 10.0 mi ESE 6.9 mph - N/A   Clear
4:13 AM 39.2 °F 33.6 °F 32.0 °F 75% 30.32 in 10.0 mi East 8.1 mph - N/A   Clear
4:32 AM 39.2 °F 33.6 °F 33.8 °F 81% 30.32 in 10.0 mi ESE 8.1 mph - N/A   Clear
4:52 AM 39.2 °F 34.2 °F 33.8 °F 81% 30.32 in 10.0 mi ESE 6.9 mph - N/A   Clear
5:13 AM 39.2 °F 33.6 °F 33.8 °F 81% 30.32 in 10.0 mi East 8.1 mph - N/A   Clear
5:32 AM 39.2 °F 33.6 °F 33.8 °F 81% 30.32 in 10.0 mi ESE 8.1 mph - N/A   Clear
5:53 AM 39.2 °F 35.9 °F 33.8 °F 81% 30.32 in 10.0 mi ESE 4.6 mph - N/A   Clear
6:12 AM 39.2 °F 33.6 °F 33.8 °F 81% 30.32 in 10.0 mi ESE 8.1 mph - N/A   Clear
6:32 AM 41.0 °F 37.1 °F 35.6 °F 81% 30.33 in 10.0 mi ESE 5.8 mph - N/A   Clear
6:53 AM 44.6 °F 40.7 °F 35.6 °F 71% 30.33 in 10.0 mi ESE 6.9 mph - N/A   Clear
7:12 AM 46.4 °F 40.7 °F 35.6 °F 66% 30.32 in 10.0 mi ESE 12.7 mph - N/A   Clear
7:32 AM 48.2 °F - 35.6 °F 62% 30.34 in 10.0 mi SE 11.5 mph - N/A   Clear
7:53 AM 50.0 °F - 35.6 °F 58% 30.34 in 10.0 mi SE 12.7 mph - N/A   Clear
8:12 AM 51.8 °F - 35.6 °F 54% 30.33 in 10.0 mi SE 11.5 mph 18.4 mph N/A   Clear
8:32 AM 51.8 °F - 35.6 °F 54% 30.33 in 10.0 mi SE 12.7 mph 17.3 mph N/A   Clear
8:53 AM 55.4 °F - 35.6 °F 47% 30.33 in 10.0 mi SE 15.0 mph 18.4 mph N/A   Clear
9:12 AM 55.4 °F - 35.6 °F 47% 30.33 in 10.0 mi SE 15.0 mph - N/A   Clear
9:32 AM 57.2 °F - 35.6 °F 44% 30.33 in 10.0 mi SSE 15.0 mph 19.6 mph N/A   Clear
9:53 AM 59.0 °F - 35.6 °F 42% 30.33 in 10.0 mi SSE 15.0 mph 23.0 mph N/A   Clear
10:12 AM 60.8 °F - 35.6 °F 39% 30.33 in 10.0 mi SSE 15.0 mph 26.5 mph N/A   Clear
10:32 AM 60.8 °F - 35.6 °F 39% 30.32 in 10.0 mi SSE 17.3 mph 24.2 mph N/A   Clear
10:53 AM 62.6 °F - 37.4 °F 39% 30.30 in 10.0 mi SSE 15.0 mph - N/A   Clear
11:12 AM 62.6 °F - 37.4 °F 39% 30.30 in 10.0 mi SSE 18.4 mph 23.0 mph N/A   Clear
11:32 AM 64.4 °F - 37.4 °F 37% 30.30 in 10.0 mi South 16.1 mph 20.7 mph N/A   Clear
11:52 AM 64.4 °F - 37.4 °F 37% 30.28 in 10.0 mi SE 18.4 mph 25.3 mph N/A   Clear
12:12 PM 64.4 °F - 37.4 °F 37% 30.28 in 10.0 mi SE 13.8 mph 23.0 mph N/A   Clear
12:32 PM 66.2 °F - 37.4 °F 35% 30.27 in 10.0 mi South 13.8 mph 23.0 mph N/A   Clear
12:52 PM 68.0 °F - 37.4 °F 33% 30.26 in 10.0 mi SSE 12.7 mph 20.7 mph N/A   Clear
1:12 PM 68.0 °F - 35.6 °F 30% 30.25 in 10.0 mi SSE 12.7 mph 23.0 mph N/A   Clear
1:32 PM 69.8 °F - 37.4 °F 31% 30.24 in 10.0 mi SSE 20.7 mph 26.5 mph N/A   Clear
1:52 PM 69.8 °F - 35.6 °F 28% 30.23 in 10.0 mi SSE 17.3 mph 26.5 mph N/A   Clear
2:12 PM 69.8 °F - 35.6 °F 28% 30.22 in 10.0 mi SSE 19.6 mph 28.8 mph N/A   Clear
2:32 PM 69.8 °F - 35.6 °F 28% 30.21 in 10.0 mi SE 19.6 mph 29.9 mph N/A   Scattered Clouds
2:52 PM 69.8 °F - 33.8 °F 27% 30.21 in 10.0 mi SSE 18.4 mph 28.8 mph N/A   Scattered Clouds
3:12 PM 71.6 °F - 35.6 °F 27% 30.21 in 10.0 mi SSE 19.6 mph 27.6 mph N/A   Mostly Cloudy
3:32 PM 69.8 °F - 37.4 °F 31% 30.19 in 10.0 mi SE 17.3 mph 25.3 mph N/A Thunderstorm Overcast
3:52 PM 69.8 °F - 35.6 °F 28% 30.17 in 10.0 mi SSE 19.6 mph 24.2 mph N/A   Mostly Cloudy
4:12 PM 71.6 °F - 35.6 °F 27% 30.17 in 10.0 mi SSE 17.3 mph 24.2 mph N/A   Clear
4:32 PM 69.8 °F - 37.4 °F 31% 30.16 in 10.0 mi SSE 12.7 mph 23.0 mph N/A   Scattered Clouds
4:52 PM 69.8 °F - 39.2 °F 33% 30.22 in 10.0 mi SW 6.9 mph 19.6 mph N/A Thunderstorm Thunderstorm
5:12 PM 66.2 °F - 44.6 °F 46% 30.26 in 4.0 mi WNW 4.6 mph - 0.05 in Rain , Thunderstorm Heavy Thunderstorms and Rain
5:32 PM 62.6 °F - 50.0 °F 63% 30.17 in 7.0 mi East 21.9 mph - 0.09 in Rain , Thunderstorm Light Thunderstorms and Rain
5:51 PM 60.8 °F - 51.8 °F 72% 30.17 in 10.0 mi ESE 15.0 mph - 0.11 in Rain , Thunderstorm Light Thunderstorms and Rain
6:10 PM 60.8 °F - 50.0 °F 68% 30.18 in 10.0 mi SE 11.5 mph - N/A Rain , Thunderstorm Light Thunderstorms and Rain
6:33 PM 59.0 °F - 51.8 °F 77% 30.18 in 1.5 mi East 13.8 mph - 0.33 in Rain , Thunderstorm Heavy Thunderstorms and Rain
6:52 PM 59.0 °F - 51.8 °F 77% 30.15 in 10.0 mi ESE 18.4 mph - 0.36 in Rain , Thunderstorm Light Thunderstorms and Rain
7:12 PM 59.0 °F - 51.8 °F 77% 30.15 in 10.0 mi ESE 13.8 mph 23.0 mph N/A Rain , Thunderstorm Light Thunderstorms and Rain
7:33 PM 59.0 °F - 51.8 °F 77% 30.16 in 10.0 mi ESE 12.7 mph - N/A Thunderstorm Thunderstorm
7:52 PM 59.0 °F - 51.8 °F 77% 30.15 in 10.0 mi ESE 11.5 mph - N/A Thunderstorm Overcast
8:12 PM 60.8 °F - 51.8 °F 72% 30.14 in 10.0 mi ESE 12.7 mph - N/A   Overcast
8:32 PM 60.8 °F - 51.8 °F 72% 30.13 in 10.0 mi SE 16.1 mph 19.6 mph N/A   Mostly Cloudy
8:52 PM 60.8 °F - 48.2 °F 63% 30.13 in 10.0 mi SE 16.1 mph 27.6 mph N/A   Mostly Cloudy
9:12 PM 60.8 °F - 50.0 °F 68% 30.15 in 10.0 mi SSE 13.8 mph 19.6 mph N/A   Mostly Cloudy
9:32 PM 60.8 °F - 50.0 °F 68% 30.16 in 10.0 mi SSE 10.4 mph 16.1 mph N/A   Overcast
9:51 PM 60.8 °F - 50.0 °F 68% 30.17 in 10.0 mi SSE 10.4 mph - N/A   Overcast
10:12 PM 60.8 °F - 50.0 °F 68% 30.17 in 10.0 mi SE 10.4 mph - N/A   Overcast
10:32 PM 60.8 °F - 50.0 °F 68% 30.18 in 10.0 mi SSE 9.2 mph - N/A   Overcast
10:53 PM 59.0 °F - 50.0 °F 72% 30.17 in 10.0 mi SE 13.8 mph - N/A   Overcast
11:12 PM 59.0 °F - 50.0 °F 72% 30.17 in 10.0 mi SE 10.4 mph - N/A   Overcast
11:33 PM 59.0 °F - 50.0 °F 72% 30.17 in 10.0 mi SSE 10.4 mph - N/A   Overcast
11:52 PM 59.0 °F - 48.2 °F 67% 30.18 in 10.0 mi SSE 13.8 mph 17.3 mph N/A   Overcast